Weather reports worldwide

Advertisment
Finisterre, Spain (8040): temperature & dewpoint: 13.07.2018 13:00:00 - 19.07.2018 13:00:00 (CEST)Finisterre, Spain (8040): wind speed & gusts: 13.07.2018 13:00:00 - 19.07.2018 13:00:00 (CEST)Finisterre, Spain (8040): wind direction: 13.07.2018 13:00:00 - 19.07.2018 13:00:00 (CEST)Finisterre, Spain (8040): reduced air pressure: 13.07.2018 13:00:00 - 19.07.2018 13:00:00 (CEST)Finisterre, Spain (8040): visibility: 13.07.2018 13:00:00 - 19.07.2018 13:00:00 (CEST)Finisterre, Spain (8040): sunshine duration: 13.07.2018 13:00:00 - 19.07.2018 13:00:00 (CEST)Finisterre, Spain (8040): precipitation: 13.07.2018 13:00:00 - 19.07.2018 13:00:00 (CEST)
Date & Time tt [°C] td [°C] ff [km/h] ff [kn] fx [km/h] fx [kn] dd ppp [hPa] vv [km] sd [min] rr [mm]
19.07.2018 13:00:00 20,0 14,6 20 11 44 24 ENE 1018,0 19 0 0,0
19.07.2018 12:00:00 18,7 15,5 21 11 43 23 NE 1017,5 20 0 0,0
19.07.2018 11:00:00 18,4 15,8 27 15 49 27 ENE 1017,1 19 0 0,0
19.07.2018 10:00:00 18,4 16,4 23 12 36 20 ENE 1016,8 16 6 0,0
19.07.2018 09:00:00 16,9 16,1 22 12 42 23 NE 1016,7 11 5 0,0
19.07.2018 08:00:00 16,5 15,9 26 14 37 20 ENE 1016,5 11 0 -
19.07.2018 07:00:00 16,7 16,0 20 11 30 16 NE 1016,0 4,8 0 0,0
19.07.2018 06:00:00 16,7 16,0 19 10 23 13 ENE 1016,0 0,5 0 0,0
19.07.2018 05:00:00 16,6 16,0 6 3 11 6 NE 1016,2 0,2 0 0,0
19.07.2018 04:00:00 16,6 16,0 4 2 6 3 NE 1016,2 0,1 0 0,0
19.07.2018 03:00:00 16,7 16,0 3 2 8 4 NE 1016,3 0,1 0 0,0
19.07.2018 02:00:00 16,8 16,1 7 4 14 7 E 1016,5 0,2 0 -
19.07.2018 01:00:00 16,6 16,0 11 6 29 15 ENE 1016,5 0,1 0 0,0
19.07.2018 00:00:00 16,7 16,0 21 12 35 19 NE 1016,6 0,1 0 0,0
18.07.2018 23:00:00 16,7 16,0 29 15 47 26 NE 1016,5 0,2 0 0,0
18.07.2018 22:00:00 16,3 15,5 34 18 48 26 NNE 1016,1 0,1 0 0,0
18.07.2018 21:00:00 16,3 15,3 29 16 44 24 NNE 1015,9 0,4 0 0,0
18.07.2018 20:00:00 16,9 15,6 30 16 48 26 NNE 1015,6 7 3 -
18.07.2018 19:00:00 16,7 15,7 33 18 53 29 NNE 1015,5 9 0 0,0
18.07.2018 18:00:00 16,9 16,0 32 18 48 26 NNE 1015,5 0,8 1 0,0
18.07.2018 17:00:00 16,8 15,7 29 16 49 26 NNE - - 9 0,0
18.07.2018 16:00:00 17,8 16,3 24 13 45 24 NNE 1015,2 1,0 27 0,0
18.07.2018 15:00:00 17,7 16,4 30 16 47 26 NNE - - 1 0,0
18.07.2018 14:00:00 17,5 16,2 33 18 46 25 NNE - - 14 -
18.07.2018 13:00:00 17,6 16,1 31 17 45 24 NNE 1014,9 2,9 56 0,0
18.07.2018 12:00:00 18,4 16,4 20 11 31 17 NNE 1014,8 11 40 0,0
18.07.2018 11:00:00 18,2 16,7 20 11 37 20 NE 1014,6 11 12 0,0
18.07.2018 10:00:00 16,0 15,1 30 16 45 25 NNE 1014,8 8 0 0,0
18.07.2018 09:00:00 16,2 15,1 23 12 41 22 NNE 1014,3 7 0 0,0
18.07.2018 08:00:00 16,0 15,1 28 15 39 21 NNE 1014,0 11 0 -
18.07.2018 07:00:00 15,8 15,0 27 15 42 23 NE 1014,0 11 0 0,0
18.07.2018 06:00:00 15,4 14,6 29 16 38 21 NNE 1014,1 9 0 0,0
18.07.2018 05:00:00 15,8 15,0 29 15 41 22 NE 1014,1 8 0 0,0
18.07.2018 04:00:00 15,5 14,5 28 15 42 23 NNE 1014,5 7 0 0,0
18.07.2018 03:00:00 15,3 14,1 31 17 45 24 NE 1014,8 11 0 0,0
18.07.2018 02:00:00 15,2 13,8 33 18 51 28 NE 1015,2 14 0 -
18.07.2018 01:00:00 15,4 13,6 35 19 55 30 NNE 1015,5 15 0 0,0
18.07.2018 00:00:00 15,6 13,5 39 21 55 30 NE 1015,6 16 0 0,0
17.07.2018 23:00:00 15,8 12,5 35 19 55 30 NE 1015,9 18 0 0,0
17.07.2018 22:00:00 16,5 12,0 33 18 53 29 NNE 1015,9 17 3 0,0
17.07.2018 21:00:00 17,8 12,2 32 17 49 27 NNE 1015,9 19 51 0,0
17.07.2018 20:00:00 18,7 12,6 28 15 49 27 NNE 1016,2 17 60 -
17.07.2018 19:00:00 19,2 13,2 32 17 51 28 NNE 1016,3 13 60 0,0
17.07.2018 18:00:00 18,4 13,5 35 19 56 30 NNE 1016,8 16 60 0,0
17.07.2018 17:00:00 18,2 13,9 37 20 58 31 NNE 1017,3 15 60 0,0
17.07.2018 16:00:00 18,4 14,3 35 19 54 29 NNE 1017,7 17 60 0,0
17.07.2018 15:00:00 18,2 13,9 35 19 52 28 NNE 1018,2 14 60 0,0
17.07.2018 14:00:00 17,4 14,7 33 18 50 27 NNE 1018,8 16 60 -
17.07.2018 13:00:00 17,0 14,6 29 16 45 24 NNE 1019,3 12 60 0,0
17.07.2018 12:00:00 17,3 14,7 24 13 37 20 NNE 1019,5 11 60 0,0
17.07.2018 11:00:00 16,4 14,2 26 14 36 19 NNE 1019,8 10 60 0,0
17.07.2018 10:00:00 15,9 14,0 19 10 32 18 NNE 1019,9 8 56 0,0
17.07.2018 09:00:00 15,6 13,5 26 14 36 20 NE 1020,0 14 60 0,0
17.07.2018 08:00:00 15,0 13,6 27 15 35 19 NE 1020,1 11 25 -
17.07.2018 07:00:00 14,6 13,5 28 15 33 18 NE 1020,3 13 0 0,0
17.07.2018 06:00:00 14,5 13,6 26 14 34 18 NE 1020,3 10 0 0,0
17.07.2018 05:00:00 14,7 13,5 28 15 33 18 NE 1020,5 11 0 0,0
17.07.2018 04:00:00 15,1 13,5 23 12 38 21 NE 1020,6 12 0 0,0
17.07.2018 03:00:00 15,5 13,7 29 15 39 21 NE 1020,8 17 0 0,0
17.07.2018 02:00:00 15,5 14,3 29 15 42 23 NE 1021,3 12 0 -
17.07.2018 01:00:00 15,5 14,3 30 16 39 21 NNE 1021,5 12 0 0,0
17.07.2018 00:00:00 16,0 14,7 26 14 34 18 NE 1021,9 15 0 0,0
16.07.2018 23:00:00 16,6 15,3 19 10 27 15 N 1021,8 10 0 0,0
16.07.2018 22:00:00 16,8 15,3 13 7 20 11 N 1021,7 8 0 0,0
16.07.2018 21:00:00 17,5 15,5 16 8 21 12 N 1021,6 17 22 0,0
16.07.2018 20:00:00 18,6 16,4 11 6 22 12 NNW 1021,7 17 30 -
16.07.2018 19:00:00 19,0 16,2 13 7 21 11 NNW 1021,7 15 60 0,0
16.07.2018 18:00:00 20,6 15,8 10 5 18 10 NW 1021,6 17 60 0,0
16.07.2018 17:00:00 20,7 16,3 11 6 18 10 WNW 1021,9 18 60 0,0
16.07.2018 16:00:00 20,2 16,6 10 5 19 10 WNW 1022,1 19 56 0,0
16.07.2018 15:00:00 18,8 16,0 13 7 20 11 W 1022,3 12 40 0,0
16.07.2018 14:00:00 19,8 15,9 8 4 16 9 SSW 1022,3 15 21 -
16.07.2018 13:00:00 19,5 16,6 11 6 16 9 SW 1022,2 18 53 0,0
16.07.2018 12:00:00 18,8 16,6 10 5 14 8 SW 1022,2 13 42 0,0
16.07.2018 11:00:00 18,0 16,5 7 4 12 7 SSW 1021,7 13 35 0,0
16.07.2018 10:00:00 16,7 15,4 6 3 8 5 WSW 1021,8 3,7 29 0,0
16.07.2018 09:00:00 16,9 16,0 4 2 11 6 WSW 1021,6 2,6 31 0,0
16.07.2018 08:00:00 15,9 15,1 8 4 11 6 NW - - 0 -
16.07.2018 07:00:00 15,7 14,9 9 5 14 7 N 1021,2 8 0 0,0
16.07.2018 06:00:00 15,8 15,0 11 6 14 8 N 1020,8 4,7 0 0,0
16.07.2018 05:00:00 16,0 15,2 10 6 19 10 N 1020,6 6 0 0,0
16.07.2018 04:00:00 16,0 15,2 16 8 21 12 N 1020,7 5 0 0,0
16.07.2018 03:00:00 15,8 15,0 16 9 21 12 NNE 1020,7 7 0 0,0
16.07.2018 02:00:00 16,0 15,2 18 10 27 14 NNE 1020,7 7 0 -
16.07.2018 01:00:00 16,3 15,5 17 9 22 12 N - - 0 0,0
16.07.2018 00:00:00 16,4 15,6 16 8 22 12 NNE 1020,7 2,1 0 0,0
15.07.2018 23:00:00 16,7 15,7 15 8 21 11 N 1020,2 0,1 0 0,0
15.07.2018 22:00:00 16,8 15,7 11 6 20 11 NNE 1019,4 3,7 0 0,0
15.07.2018 21:00:00 16,8 14,8 14 7 19 11 N 1019,3 9 0 0,0
15.07.2018 20:00:00 17,0 14,0 12 7 18 10 N 1019,2 16 0 -
15.07.2018 19:00:00 16,9 15,8 11 6 16 9 N 1019,2 12 0 0,0
15.07.2018 18:00:00 17,7 16,4 7 4 14 8 WNW 1018,9 0,2 0 0,0
15.07.2018 17:00:00 18,1 16,8 9 5 13 7 WSW 1018,9 2,0 0 0,0
15.07.2018 16:00:00 18,0 16,6 6 4 10 5 W 1018,9 3,5 0 0,0
15.07.2018 15:00:00 17,7 16,2 4 2 9 5 W 1018,8 3,6 0 0,0
15.07.2018 14:00:00 17,9 16,4 3 2 9 5 NNW 1018,8 3,2 0 -
15.07.2018 13:00:00 17,9 16,4 6 4 11 6 NW 1018,5 1,2 0 0,6
15.07.2018 12:00:00 17,5 16,2 7 4 9 5 WSW 1018,2 2,3 0 0,0
15.07.2018 11:00:00 17,5 16,0 6 3 9 5 WSW 1018,2 7 0 0,0
15.07.2018 10:00:00 17,1 16,1 5 3 9 5 SW 1018,0 0,7 0 0,0
15.07.2018 09:00:00 16,4 15,4 3 2 7 4 W 1017,8 0,1 0 0,0
15.07.2018 08:00:00 15,9 14,8 5 3 10 5 NW 1017,5 0,5 0 -
15.07.2018 07:00:00 16,2 14,7 2 1 8 4 NW 1017,5 1,9 0 0,0
15.07.2018 06:00:00 16,2 14,5 3 1 5 3 WSW 1017,2 10 0 0,0
15.07.2018 05:00:00 16,4 14,2 3 2 6 3 SW 1017,2 11 0 0,0
15.07.2018 04:00:00 16,4 14,6 2 1 11 6 NNE 1017,4 11 0 0,0
15.07.2018 03:00:00 16,6 14,4 11 6 15 8 NNE 1017,6 11 0 0,0
15.07.2018 02:00:00 16,5 15,0 11 6 14 8 NNE 1018,1 9 0 -
15.07.2018 01:00:00 16,7 15,3 10 5 11 6 NNE 1018,3 8 0 0,0
15.07.2018 00:00:00 16,8 14,6 4 2 10 5 WNW 1018,1 8 0 0,0
14.07.2018 23:00:00 17,8 14,7 7 4 8 5 SSW 1018,0 11 0 0,0
14.07.2018 22:00:00 18,3 14,8 5 3 9 5 SSE 1017,5 14 0 0,0
14.07.2018 21:00:00 18,9 15,8 3 2 8 4 S 1017,8 11 22 0,0
14.07.2018 20:00:00 18,8 15,4 4 2 12 6 NW 1017,5 12 9 -
14.07.2018 19:00:00 18,6 16,0 4 2 13 7 WNW 1017,8 11 1 0,0
14.07.2018 18:00:00 19,2 16,2 8 4 16 9 WNW 1017,8 11 0 0,0
14.07.2018 17:00:00 19,7 16,7 11 6 18 10 NW 1017,5 11 0 0,0
14.07.2018 16:00:00 20,0 16,8 9 5 15 8 NNW 1017,5 13 4 0,0
14.07.2018 15:00:00 18,8 16,6 7 4 16 9 N 1017,9 7 0 0,0
14.07.2018 14:00:00 18,7 16,3 13 7 16 9 N 1017,7 9 49 -
14.07.2018 13:00:00 18,9 16,3 8 5 11 6 N 1017,3 10 60 0,0
14.07.2018 12:00:00 19,2 17,4 3 2 15 8 NNW 1017,0 9 7 0,0
14.07.2018 11:00:00 17,9 15,9 8 4 12 7 NNE 1017,1 1,3 0 0,0
14.07.2018 10:00:00 19,6 17,2 4 2 10 6 SSE 1016,8 9 0 0,0
14.07.2018 09:00:00 18,1 16,4 8 5 13 7 SSE 1016,6 8 0 0,0
14.07.2018 08:00:00 17,1 16,3 11 6 14 8 E 1016,7 9 0 -
14.07.2018 07:00:00 16,5 15,7 8 4 16 9 ENE 1016,8 5 0 0,0
14.07.2018 06:00:00 16,5 15,5 10 5 16 9 NE 1016,8 0,1 0 0,0
14.07.2018 05:00:00 16,7 15,5 14 8 23 12 SW 1016,3 0,3 0 0,0
14.07.2018 04:00:00 16,9 15,8 12 7 19 11 S 1016,7 0,1 0 0,0
14.07.2018 03:00:00 17,1 15,8 14 8 24 13 SSE 1017,0 7 0 0,0
14.07.2018 02:00:00 16,9 15,4 17 9 22 12 SE 1017,2 6 0 -
14.07.2018 01:00:00 17,4 15,5 7 4 16 8 SSE 1016,7 10 0 0,0
14.07.2018 00:00:00 17,2 15,5 4 2 15 8 E 1016,9 8 0 0,0
13.07.2018 23:00:00 17,7 15,7 9 5 13 7 SE 1016,7 2,0 0 0,0
13.07.2018 22:00:00 18,5 16,5 6 3 11 6 ESE 1016,2 7 0 0,0
13.07.2018 21:00:00 19,3 16,7 5 3 10 5 ESE 1015,8 9 19 0,0
13.07.2018 20:00:00 20,1 16,9 4 2 11 6 NW 1015,5 10 54 -
13.07.2018 19:00:00 20,9 16,9 6 4 18 10 S 1015,9 11 27 0,0
13.07.2018 18:00:00 18,9 16,1 10 6 15 8 S 1016,1 0,4 3 0,0
13.07.2018 17:00:00 19,4 16,8 8 4 16 9 WSW 1015,7 0,6 8 0,0
13.07.2018 16:00:00 19,7 16,6 11 6 18 10 S 1015,9 0,2 12 0,0
13.07.2018 15:00:00 21,2 17,8 4 2 14 8 SSW 1015,7 1,3 52 0,0
13.07.2018 14:00:00 18,4 16,6 10 5 24 13 S - - 20 -
13.07.2018 13:00:00 18,2 15,8 18 10 23 13 S 1016,0 0,2 43 0,0

tt = temperature
td = dewpoint
ff = wind speed
fx = gusts
dd = wind direction
ppp = reduced air pressure
vv = visibility
sd = sunshine duration
rr = precipitation

Next stations